Printer-friendly version

IAU Minor Planet Center

Minor Planet Center

MPEC 2010-C41 : 2010 CO1

The following Minor Planet Electronic Circular may be linked-to from your own Web pages, but must not otherwise be redistributed electronically.

A form allowing access to any MPEC is at the bottom of this page.


Read MPEC 2010-C40 Read MPEC 2010-C42


M.P.E.C. 2010-C41                                Issued 2010 Feb. 10, 15:53 UT

     The Minor Planet Electronic Circulars contain information on unusual
         minor planets and routine data on comets.  They are published
   on behalf of Commission 20 of the International Astronomical Union by the
          Minor Planet Center, Smithsonian Astrophysical Observatory,
                          Cambridge, MA 02138, U.S.A.

             Prepared using the Tamkin Foundation Computer Network

                              MPC@CFA.HARVARD.EDU
          URL http://www.cfa.harvard.edu/iau/mpc.html  ISSN 1523-6714

                                   2010 CO1

Observations:
     K10C01O* S2010 02 01.48710 15 51 35.76 +35 23 11.2                 EC041C51
     K10C01O  s2010 02 01.48710 1 - 3847.7494 - 3831.3745 + 4265.9383   EC041C51
     K10C01O  S2010 02 01.55319 15 51 52.22 +35 20 18.3                 EC041C51
     K10C01O  s2010 02 01.55319 1 - 3815.4881 - 3819.8222 + 4305.0711   EC041C51
     K10C01O  S2010 02 01.68549 15 52 25.03 +35 14 28.7                 EC041C51
     K10C01O  s2010 02 01.68549 1 - 3797.9439 - 3823.5624 + 4316.9408   EC041C51
     K10C01O  S2010 02 01.68562 15 52 24.90 +35 14 28.8                 EC041C51
     K10C01O  s2010 02 01.68562 1 - 3844.0074 - 3849.9887 + 4252.3991   EC041C51
     K10C01O  S2010 02 01.75171 15 52 41.39 +35 11 32.6                 EC041C51
     K10C01O  s2010 02 01.75171 1 - 3812.6349 - 3838.9583 + 4290.1074   EC041C51
     K10C01O  S2010 02 01.81792 15 52 57.87 +35 08 37.1                 EC041C51
     K10C01O  s2010 02 01.81792 1 - 3827.3385 - 3854.1931 + 4263.2522   EC041C51
     K10C01O  S2010 02 01.88401 15 53 14.33 +35 05 39.4                 EC041C51
     K10C01O  s2010 02 01.88401 1 - 3795.8982 - 3842.7226 + 4301.5739   EC041C51
     K10C01O  S2010 02 01.95023 15 53 30.89 +35 02 42.4                 EC041C51
     K10C01O  s2010 02 01.95023 1 - 3810.2272 - 3857.9709 + 4275.4642   EC041C51
     K10C01O  S2010 02 02.01644 15 53 47.38 +34 59 43.8                 EC041C51
     K10C01O  s2010 02 02.01644 1 - 3824.3882 - 3873.1240 + 4249.2756   EC041C51
     K10C01O  S2010 02 02.08253 15 54 03.99 +34 56 45.0                 EC041C51
     K10C01O  s2010 02 02.08253 1 - 3792.6418 - 3861.6437 + 4287.9945   EC041C51
     K10C01O  S2010 02 02.28105 15 54 53.84 +34 47 43.5                 EC041C51
     K10C01O  s2010 02 02.28105 1 - 3789.5118 - 3880.6280 + 4273.6792   EC041C51
     K10C01O  S2010 02 02.34727 15 55 10.55 +34 44 41.9                 EC041C51
     K10C01O  s2010 02 02.34727 1 - 3803.8525 - 3895.8614 + 4246.9153   EC041C51
     K10C01O tC2010 02 05.49413 16 08 59.32 +32 05 51.6                 EC041291
     K10C01O tC2010 02 05.51155 16 09 03.59 +32 04 57.3                 EC041291
     K10C01O  C2010 02 06.51181 16 13 42.63 +31 07 35.9          21.2 V EC041G96
     K10C01O  C2010 02 06.52670 16 13 46.59 +31 06 44.5          21.8 V EC041G96
     K10C01O tC2010 02 06.54101 16 13 50.44 +31 05 54.9                 EC041291
     K10C01O  C2010 02 06.54123 16 13 50.54 +31 05 53.4          21.6 V EC041G96
     K10C01O  C2010 02 06.54252 16 13 50.89 +31 05 49.0          21.0 V EC041G96
     K10C01O tC2010 02 06.54574 16 13 51.87 +31 05 36.1                 EC041291
     K10C01O  C2010 02 07.46750516 18 16.58 +30 09 19.1          20.9 V EC041H21
     K10C01O  C2010 02 07.48918016 18 22.56 +30 07 57.6          20.5 V EC041H21

Observer details:
291 LPL/Spacewatch II.  Observers T. H. Bressi, J. V. Scotti.  1.8-m f/2.7
    reflector + CCD.
C51 WISE.  Measurers A. Mainzer, E. Wright, J. Bauer, T. Grav, J. Dailey,
    J. Masiero, R. Cutri, R. McMillan, R. Walker.
    (http://wise.ssl.berkeley.edu/mission_sci.html).
G96 Mt. Lemmon Survey.  Observer A. R. Gibbs.  Measurers J. D. Ahern,
    E. C. Beshore, A. Boattini, G. J. Garradd, A. R. Gibbs, A. D. Grauer,
    R. E. Hill, R. A. Kowalski, S. M. Larson, R. H. McNaught.  1.5-m reflector
    + CCD.
H21 Astronomical Research Observatory, Westfield.  Observer R. Holmes.
    Measurer S. Foglia.

Orbital elements:
2010 CO1                                            PHA, Earth MOID = 0.0224 AU
Epoch 2010 Jan. 4.0 TT = JDT 2455200.5                  MPC
M 252.42155              (2000.0)            P               Q
n   0.96835898     Peri.  252.69488     -0.42056777     +0.90536006
a   1.0118399      Node   351.68201     -0.59859227     -0.32552172
e   0.2173975      Incl.   23.93957     -0.68176979     -0.27268805
P   1.02           H   21.5           G   0.15           U   9
Residuals in seconds of arc
100201 C51  0.8-  0.3-    100202 C51  0.6-  0.1-    100206 291  1.3-  0.9+
100201 C51  0.8+  0.4+    100202 C51  0.2+  0.2+    100206 G96  0.3-  0.4+
100201 C51  1.1+  0.1+    100202 C51  0.2-  0.1-    100206 G96  0.2-  0.5+
100201 C51  1.0-  0.1+    100202 C51  0.0   0.0     100206 291  0.8+  1.3-
100201 C51  0.0   0.5-    100205 291  0.6+  0.1+    100207 H21  0.9+  0.2+
100201 C51  0.0   0.3+    100205 291 (3.4-  2.7+)   100207 H21  0.2+  0.3-
100201 C51  0.1-  0.4-    100206 G96  0.0   0.1-
100201 C51  0.3+  0.2+    100206 G96  0.7-  0.5+

Ephemeris:
2010 CO1                 a,e,i = 1.01, 0.22, 24                  q = 0.7919
Date    TT    R. A. (2000) Decl.     Delta      r     Elong.  Phase     V
2010 02 03    15 57.93   +34 14.2    0.264    1.016    88.9    76.0    21.3
2010 02 13    16 47.65   +23 11.5    0.201    0.978    81.5    86.8    21.0
2010 02 23    17 57.81   +02 39.9    0.159    0.940    67.5   103.6    21.2
2010 03 05    19 32.88   -23 40.2    0.163    0.903    53.0   118.7    22.1
2010 03 15    21 12.73   -38 51.0    0.218    0.868    49.4   119.6    22.7

Gareth V. Williams           (C) Copyright 2010 MPC           M.P.E.C. 2010-C41

Read MPEC 2010-C40 Read MPEC 2010-C42


MPEC number:

Enter an
MPEC number in one of the following forms:
  • 1997-B01 (the full form)
  • J97B01 (the packed version of the full form)
  • B01 (the abbreviated form)

Valid HTML 4.01!